TimeEST,TemperatureF,Dew PointF,Humidity,Sea Level PressureIn,VisibilityMPH,Wind Direction,Wind SpeedMPH,Gust SpeedMPH,PrecipitationIn,Events,Conditions,WindDirDegrees,DateUTC
12:53 AM,19.0,9.0,65,30.27,10.0,South,4.6,-,N/A,,Clear,170,2014-01-04 05:53:00
1:53 AM,19.0,9.0,65,30.26,10.0,Calm,Calm,-,N/A,,Clear,0,2014-01-04 06:53:00
2:53 AM,18.0,10.0,71,30.26,10.0,Calm,Calm,-,N/A,,Clear,0,2014-01-04 07:53:00
3:53 AM,19.0,10.0,68,30.26,10.0,Calm,Calm,-,N/A,,Clear,0,2014-01-04 08:53:00
4:53 AM,19.9,10.0,65,30.25,10.0,SSE,4.6,-,N/A,,Clear,160,2014-01-04 09:53:00
5:53 AM,21.0,10.0,63,30.25,10.0,South,5.8,-,N/A,,Clear,170,2014-01-04 10:53:00
6:53 AM,21.9,10.0,60,30.24,10.0,South,6.9,-,N/A,,Clear,170,2014-01-04 11:53:00
7:53 AM,23.0,10.9,60,30.24,10.0,South,6.9,-,N/A,,Clear,170,2014-01-04 12:53:00
8:53 AM,26.1,12.0,55,30.24,10.0,South,8.1,-,N/A,,Clear,170,2014-01-04 13:53:00
9:53 AM,30.0,12.9,49,30.23,10.0,South,10.4,-,N/A,,Clear,190,2014-01-04 14:53:00
10:53 AM,33.1,14.0,46,30.22,10.0,South,12.7,19.6,N/A,,Clear,190,2014-01-04 15:53:00
11:53 AM,36.0,15.1,43,30.18,10.0,SW,13.8,21.9,N/A,,Clear,220,2014-01-04 16:53:00
12:53 PM,39.0,15.1,38,30.14,10.0,South,13.8,25.3,N/A,,Clear,180,2014-01-04 17:53:00
1:53 PM,41.0,16.0,36,30.12,10.0,South,9.2,18.4,N/A,,Clear,180,2014-01-04 18:53:00
2:53 PM,42.1,15.1,34,30.11,10.0,South,12.7,18.4,N/A,,Clear,190,2014-01-04 19:53:00
3:53 PM,42.1,16.0,35,30.10,10.0,South,11.5,-,N/A,,Clear,180,2014-01-04 20:53:00
4:53 PM,42.1,15.1,34,30.10,10.0,SSW,6.9,-,N/A,,Clear,200,2014-01-04 21:53:00
5:53 PM,39.9,16.0,38,30.09,10.0,SSE,3.5,-,N/A,,Clear,160,2014-01-04 22:53:00
6:53 PM,37.0,17.1,44,30.09,10.0,Calm,Calm,-,N/A,,Partly Cloudy,0,2014-01-04 23:53:00
7:53 PM,33.1,19.0,56,30.09,10.0,SE,4.6,-,N/A,,Clear,140,2014-01-05 00:53:00
8:53 PM,34.0,18.0,52,30.08,10.0,SE,3.5,-,N/A,,Clear,140,2014-01-05 01:53:00
9:53 PM,39.0,16.0,39,30.06,10.0,South,6.9,-,N/A,,Mostly Cloudy,180,2014-01-05 02:53:00
10:53 PM,39.9,17.1,40,30.06,10.0,Variable,6.9,-,N/A,,Overcast,0,2014-01-05 03:53:00
11:53 PM,39.9,19.0,43,30.07,10.0,South,8.1,-,N/A,,Overcast,190,2014-01-05 04:53:00